Jefferson, NC

9:39 PM EDT on April 30, 2017 (GMT -0400)
Ashe County

Weather History for KGEV - February, 2000

Change the Weather History Date:

Monday, February 21, 2000

  Actual Average Record
Temperature  
Mean Temperature 37 °F -  
Max Temperature 46 °F 48 °F 66 °F (1986)
Min Temperature 28 °F 25 °F 11 °F (1966)
Degree Days  
Heating Degree Days 28    
Moisture  
Dew Point 21 °F    
Average Humidity 58    
Maximum Humidity 74    
Minimum Humidity 37    
Precipitation  
Precipitation 0.00 in - - ()
Sea Level Pressure  
Sea Level Pressure 30.34 in    
Wind  
Wind Speed 8 mph (NW)    
Max Wind Speed 17 mph    
Max Gust Speed 33 mph    
Visibility 10 miles    
Events      
Averages and records for this station are not official NWS values.
T = Trace of Precipitation, MM = Missing Value Source: NWS Daily Summary

Daily Weather History Graph

Daily Weather History Graph

Search for Another Location

Airport or City:

Trip Planner

Search our weather history database for the weather conditions in past years. The results will help you decide how hot, cold, wet, or windy it might be!

Date:

Astronomy

Feb. 21, 2000 Rise Set
Actual Time 7:07 AM EST 6:12 PM EST
Civil Twilight 6:41 AM EST 6:38 PM EST
Nautical Twilight 6:11 AM EST 7:08 PM EST
Astronomical Twilight 5:41 AM EST 7:38 PM EST
Moon 8:33 PM EST (2/21) 8:31 AM EST (2/21)
Length of Visible Light 11h 57m
Length of Day
11h 04m
Waning Gibbous, 95% of the Moon is Illuminated
Feb 21
Waning Gibbous
Feb 26
Last Quarter
Mar 6
New
Mar 13
First Quarter
Mar 19
Full

Hourly Weather History & Observations

Time (EST) Temp. Windchill Dew Point Humidity Pressure Visibility Wind Dir Wind Speed Gust Speed Precip Events Conditions
12:17 AM 28.4 °F 17.5 °F 21.2 °F 74% 30.27 in 10.0 mi WNW 13.8 mph 25.3 mph N/A   Clear
12:37 AM 28.4 °F 16.2 °F 21.2 °F 74% 30.27 in 10.0 mi NW 17.3 mph 33.4 mph N/A   Clear
12:57 AM 28.4 °F 19.7 °F 21.2 °F 74% 30.29 in 10.0 mi WNW 9.2 mph 23.0 mph N/A   Clear
1:17 AM 28.4 °F 21.2 °F 21.2 °F 74% 30.30 in 10.0 mi WNW 6.9 mph 24.2 mph N/A   Clear
1:37 AM 28.4 °F 19.1 °F 21.2 °F 74% 30.30 in 10.0 mi WNW 10.4 mph 19.6 mph N/A   Clear
1:57 AM 28.4 °F 21.2 °F 21.2 °F 74% 30.30 in 10.0 mi WNW 6.9 mph - N/A   Clear
2:17 AM 28.4 °F 23.3 °F 21.2 °F 74% 30.29 in 10.0 mi WNW 4.6 mph - N/A   Clear
2:37 AM 28.4 °F 18.5 °F 21.2 °F 74% 30.29 in 10.0 mi WNW 11.5 mph 16.1 mph N/A   Clear
2:57 AM 28.4 °F 18.5 °F 21.2 °F 74% 30.29 in 10.0 mi NW 11.5 mph 29.9 mph N/A   Clear
3:17 AM 28.4 °F 16.2 °F 21.2 °F 74% 30.29 in 10.0 mi WNW 17.3 mph 24.2 mph N/A   Clear
3:37 AM 28.4 °F 22.2 °F 21.2 °F 74% 30.30 in 10.0 mi NW 5.8 mph - N/A   Clear
3:57 AM 28.4 °F 23.3 °F 21.2 °F 74% 30.29 in 10.0 mi WNW 4.6 mph - N/A   Clear
4:17 AM 28.4 °F 23.3 °F 21.2 °F 74% 30.30 in 10.0 mi NW 4.6 mph - N/A   Clear
4:37 AM 28.4 °F 23.3 °F 21.2 °F 74% 30.30 in 10.0 mi NW 4.6 mph 20.7 mph N/A   Clear
4:57 AM 28.4 °F 21.2 °F 21.2 °F 74% 30.30 in 10.0 mi NW 6.9 mph - N/A   Clear
5:17 AM 28.4 °F 20.4 °F 21.2 °F 74% 30.31 in 10.0 mi WNW 8.1 mph 19.6 mph N/A   Clear
5:37 AM 28.4 °F 20.4 °F 21.2 °F 74% 30.31 in 10.0 mi WNW 8.1 mph 19.6 mph N/A   Clear
5:57 AM 28.4 °F 20.4 °F 21.2 °F 74% 30.31 in 10.0 mi WNW 8.1 mph 20.7 mph N/A   Clear
6:17 AM 28.4 °F 21.2 °F 21.2 °F 74% 30.32 in 10.0 mi WNW 6.9 mph - N/A   Clear
6:37 AM 28.4 °F 23.3 °F 21.2 °F 74% 30.32 in 10.0 mi West 4.6 mph - N/A   Clear
6:57 AM 28.4 °F - 21.2 °F 74% 30.34 in 10.0 mi Calm Calm - N/A   Clear
7:17 AM 28.4 °F 23.3 °F 21.2 °F 74% 30.34 in 10.0 mi West 4.6 mph - N/A   Clear
7:37 AM 28.4 °F 23.3 °F 21.2 °F 74% 30.34 in 10.0 mi West 4.6 mph - N/A   Clear
7:57 AM 28.4 °F 24.6 °F 21.2 °F 74% 30.36 in 10.0 mi West 3.5 mph - N/A   Clear
8:17 AM 32.0 °F 28.7 °F 21.2 °F 64% 30.36 in 10.0 mi NNW 3.5 mph - N/A   Clear
8:37 AM 32.0 °F 28.7 °F 21.2 °F 64% 30.37 in 10.0 mi SW 3.5 mph - N/A   Clear
8:57 AM 32.0 °F 27.5 °F 21.2 °F 64% 30.38 in 10.0 mi WSW 4.6 mph - N/A   Clear
9:17 AM 32.0 °F 27.5 °F 23.0 °F 69% 30.38 in 10.0 mi West 4.6 mph - N/A   Clear
9:37 AM 32.0 °F 25.6 °F 21.2 °F 64% 30.39 in 10.0 mi WSW 6.9 mph - N/A   Clear
9:57 AM 33.8 °F 29.6 °F 21.2 °F 60% 30.39 in 10.0 mi WSW 4.6 mph - N/A   Clear
10:17 AM 35.6 °F 31.7 °F 19.4 °F 52% 30.39 in 10.0 mi NNW 4.6 mph - N/A   Clear
10:37 AM 35.6 °F 30.7 °F 19.4 °F 52% 30.40 in 10.0 mi NW 5.8 mph - N/A   Clear
10:57 AM 37.4 °F 31.4 °F 19.4 °F 48% 30.39 in 10.0 mi NW 8.1 mph - N/A   Clear
11:17 AM 37.4 °F 30.3 °F 19.4 °F 48% 30.39 in 10.0 mi WNW 10.4 mph - N/A   Clear
11:37 AM 37.4 °F 31.4 °F 19.4 °F 48% 30.39 in 10.0 mi WNW 8.1 mph - N/A   Clear
11:57 AM 39.2 °F 35.0 °F 21.2 °F 49% 30.39 in 10.0 mi WNW 5.8 mph - N/A   Clear
12:17 PM 41.0 °F 35.8 °F 19.4 °F 42% 30.39 in 10.0 mi West 8.1 mph - N/A   Clear
12:37 PM 41.0 °F 35.2 °F 21.2 °F 45% 30.38 in 10.0 mi West 9.2 mph - N/A   Clear
12:57 PM 42.8 °F 41.1 °F 21.2 °F 42% 30.38 in 10.0 mi West 3.5 mph - N/A   Clear
1:17 PM 44.6 °F 40.7 °F 23.0 °F 43% 30.36 in 10.0 mi NE 6.9 mph - N/A   Clear
1:37 PM 44.6 °F 40.7 °F 21.2 °F 39% 30.35 in 10.0 mi NE 6.9 mph - N/A   Clear
1:57 PM 46.4 °F 45.2 °F 21.2 °F 37% 30.36 in 10.0 mi WNW 3.5 mph - N/A   Clear
2:17 PM 44.6 °F 40.7 °F 21.2 °F 39% 30.35 in 10.0 mi NNW 6.9 mph - N/A   Clear
2:37 PM 46.4 °F 42.9 °F 23.0 °F 40% 30.35 in 10.0 mi NNE 6.9 mph - N/A   Clear
2:57 PM 46.4 °F 42.9 °F 23.0 °F 40% 30.34 in 10.0 mi NE 6.9 mph - N/A   Clear
3:17 PM 46.4 °F 43.5 °F 23.0 °F 40% 30.34 in 10.0 mi East 5.8 mph 9.2 mph N/A   Clear
3:37 PM 46.4 °F 43.5 °F 23.0 °F 40% 30.34 in 10.0 mi ENE 5.8 mph - N/A   Clear
3:57 PM 46.4 °F 43.5 °F 23.0 °F 40% 30.34 in 10.0 mi NE 5.8 mph - N/A   Clear
4:17 PM 46.4 °F 42.9 °F 23.0 °F 40% 30.34 in 10.0 mi North 6.9 mph - N/A   Clear
4:37 PM 46.4 °F 44.3 °F 24.8 °F 43% 30.35 in 10.0 mi NNE 4.6 mph - N/A   Clear
4:57 PM 44.6 °F - 21.2 °F 39% 30.35 in 10.0 mi Calm Calm - N/A   Clear
5:17 PM 44.6 °F - 23.0 °F 43% 30.34 in 10.0 mi Calm Calm - N/A   Clear
5:37 PM 44.6 °F - 23.0 °F 43% 30.35 in 10.0 mi Calm Calm - N/A   Clear
5:57 PM 42.8 °F - 23.0 °F 46% 30.36 in 10.0 mi Calm Calm - N/A   Clear
6:17 PM 42.8 °F - 21.2 °F 42% 30.36 in 10.0 mi Calm Calm - N/A   Clear
6:37 PM 42.8 °F - 21.2 °F 42% 30.36 in 10.0 mi Calm Calm - N/A   Clear
6:57 PM 41.0 °F - 21.2 °F 45% 30.37 in 10.0 mi Calm Calm - N/A   Clear
7:17 PM 41.0 °F - 21.2 °F 45% 30.37 in 10.0 mi Calm Calm - N/A   Clear
7:37 PM 41.0 °F - 21.2 °F 45% 30.38 in 10.0 mi Calm Calm - N/A   Clear
7:57 PM 41.0 °F - 21.2 °F 45% 30.38 in 10.0 mi Calm Calm - N/A   Clear
8:17 PM 41.0 °F - 21.2 °F 45% 30.38 in 10.0 mi Calm Calm - N/A   Clear
8:37 PM 37.4 °F - 21.2 °F 52% 30.38 in 10.0 mi Calm Calm - N/A   Clear
8:57 PM 37.4 °F - 23.0 °F 56% 30.38 in 10.0 mi Calm Calm - N/A   Clear
9:17 PM 37.4 °F - 23.0 °F 56% 30.39 in 10.0 mi Calm Calm - N/A   Clear
9:37 PM 35.6 °F - 23.0 °F 60% 30.39 in 10.0 mi Calm Calm - N/A   Clear
9:57 PM 35.6 °F - 23.0 °F 60% 30.39 in 10.0 mi Calm Calm - N/A   Clear
10:17 PM 32.0 °F - 23.0 °F 69% 30.38 in 10.0 mi Calm Calm - N/A   Clear
10:37 PM 32.0 °F 27.5 °F 23.0 °F 69% 30.39 in 10.0 mi WSW 4.6 mph - N/A   Clear
10:57 PM 32.0 °F - 23.0 °F 69% 30.38 in 10.0 mi Calm Calm - N/A   Clear
11:17 PM 35.6 °F - 23.0 °F 60% 30.38 in 10.0 mi Calm Calm - N/A   Clear
11:37 PM 35.6 °F - 23.0 °F 60% 30.38 in 10.0 mi Calm Calm - N/A   Clear
11:57 PM 32.0 °F - 23.0 °F 69% 30.38 in 10.0 mi Calm Calm - N/A   Clear